sat.trackr.live / text

‹ back to catalog

STARLINK-6344

NORAD 56520 · 2023-065T

PAYLOAD ACTIVE UNKNOWN

§ Identity

Operator
Country
US
Launch date
2023-05-14
Launch site
AFETR
Launch vehicle
Mass (kg)
RCS (m²)

Purposes: comms

External: N2YO · Heavens-Above · Gunter

§ Orbital elements

Epoch: 2026-09-19T23:34:15.126528Z

Period
94.27 min
Inclination
43.0008°
Eccentricity
0.0000748
Mean motion
15.27575467 rev/d
Perigee alt
482.5 km
Apogee alt
483.6 km
Semi-major
6,861.2 km
B*
9.5341e-6
RAAN
195.2660°
Arg perigee
246.6259°
Mean anomaly
113.4514°
Rev number
18,631

§ Raw data

STARLINK-63441 56520U 23065T   26262.98211952  .00000000  00000+0  95341-5 0  99952 56520  43.0008 195.2660 0000748 246.6259 113.4514 15.27575467186314

JSON: /api/v1/satellites/56520 · /tle

For live sub-satellite position, see the globe view (requires WebGL).

§ Visibility from observer

Set your observer location to see the next 7 days of passes ≥ 10°. The values pass through the URL so the page stays shareable.

No JS? Fill the form by hand. The geolocation button needs JavaScript.